Temperature
22 21 21 21 21 21 21 20 20 20 20 19 19 19 19 19 18 18 18 18 18 18 18 18 17 17 17 17 17 17 17 17 17 17 17 17 17 17 17 17 17 17 17
22 21 21 21 21 21 21 21 20 20 20 20 19 19 19 19 19 18 18 18 18 18 18 18 17 17 17 17 17 17 17 17 17 17 17 17 17 17 17 17 17 17 17
22 22 22 22 22 22 21 21 21 20 20 20 19 19 18 18 18 18 18 18 18 18 18 18 17 17 17 17 17 17 17 17 17 17 17 17 17 17 17 18 18 17 17
23 22 22 22 22 22 22 21 21 20 20 19 19 19 19 19 19 19 18 18 18 18 18 18 17 17 17 17 17 17 17 17 17 17 17 17 17 17 17 17 17 17 17
23 23 23 23 23 22 22 21 21 20 20 19 19 19 19 19 19 19 18 18 18 18 18 18 17 17 17 17 17 17 17 17 17 17 17 17 17 17 17 17 17 18 18
23 23 23 22 22 22 22 21 21 20 20 19 19 19 19 19 19 19 18 18 18 18 18 18 17 17 17 17 17 17 17 17 17 17 17 17 17 17 17 17 17 17 18
23 23 22 22 22 21 21 21 21 20 20 20 19 19 19 19 19 19 19 18 18 18 18 18 18 18 18 17 17 17 17 17 17 17 17 17 17 17 17 17 17 17 17
23 23 23 22 22 22 21 21 21 20 20 20 19 19 19 19 19 18 18 18 18 18 18 18 18 17 17 17 17 17 17 17 17 17 17 17 17 17 17 17 17 16 17
23 23 23 22 22 21 21 21 21 20 20 20 19 19 19 18 18 18 18 18 18 18 18 18 17 17 17 17 17 17 17 17 17 17 17 17 17 17 16 16 16 16 16
22 22 22 22 22 22 21 21 21 20 20 20 19 19 19 18 18 18 18 18 18 17 17 17 17 17 17 17 17 17 17 17 17 16 16 16 17 16 16 16 16 16 16
22 22 22 22 21 21 21 20 20 20 20 20 19 19 19 18 18 18 18 18 17 17 17 17 17 17 17 17 17 17 16 16 16 16 16 16 16 16 16 16 16 16 16
22 22 22 22 21 21 20 20 20 20 20 20 19 19 19 18 18 18 17 17 17 17 17 17 17 17 17 17 17 16 16 16 16 16 16 16 16 16 16 16 16 16 16
21 21 21 21 20 20 20 20 20 20 20 19 19 19 18 18 18 18 17 17 17 17 17 17 17 17 17 16 16 16 16 16 16 16 16 16 16 16 16 15 15 15 15
21 21 20 20 20 20 20 20 20 20 19 19 19 18 18 18 18 17 17 17 17 17 17 17 17 16 16 16 16 16 16 16 16 15 15 15 15 15 15 15 15 15 15
20 20 20 20 20 20 20 20 19 19 19 19 18 18 18 18 17 17 17 17 17 17 17 16 16 16 16 16 16 16 16 15 15 15 15 15 15 15 15 15 15 15 15
20 20 20 20 20 20 20 19 19 19 18 18 18 18 18 17 17 17 17 16 16 16 16 16 16 16 16 16 15 15 15 15 15 15 15 15 15 15 15 15 14 14 14
19 20 20 20 20 19 19 19 18 18 18 18 17 17 17 17 17 16 16 16 16 16 16 16 16 15 15 15 15 15 15 15 15 15 14 14 14 14 14 14 14 14 14
19 19 20 19 19 19 19 18 18 18 17 17 17 17 17 17 16 16 16 16 16 16 16 15 15 15 15 15 15 15 15 14 14 14 14 14 14 14 14 14 13 13 13
19 19 19 19 19 18 18 18 17 17 17 17 17 17 16 16 16 16 16 16 15 15 15 15 15 15 14 14 14 14 14 14 14 13 13 13 13 13 13 13 13 13 12
19 19 18 18 18 18 17 17 17 17 16 16 16 16 16 16 16 15 15 15 15 15 14 14 14 14 14 14 14 14 14 13 13 13 13 12 12 12 12 12 12 12 11
18 18 18 17 17 17 17 17 17 16 16 16 16 16 15 15 15 15 15 14 14 14 14 14 13 13 13 13 13 13 13 13 12 12 12 12 12 12 11 11 11 11 11
17 17 17 17 16 16 17 16 16 16 15 15 15 15 15 15 15 14 14 14 14 14 13 13 13 13 12 12 12 12 12 12 12 12 11 11 11 11 11 11 10 10 10
17 17 17 16 16 16 16 16 15 15 15 15 15 15 14 14 14 14 14 14 13 13 13 13 12 12 12 12 12 12 11 11 11 11 10 10 10 10 10 10 10 9 9
16 16 16 16 15 15 15 15 15 14 14 14 14 14 14 14 13 13 13 13 13 12 12 12 12 11 11 11 11 11 11 11 10 10 10 10 10 10 9 9 9 9 9
15 15 15 15 15 14 14 14 14 14 14 14 14 13 13 13 13 12 12 12 12 12 12 11 11 11 11 10 10 10 10 10 10 10 9 9 9 9 9 8 8 8 8
15 14 14 14 14 14 14 14 13 13 13 13 13 13 12 12 12 12 11 11 11 11 11 11 11 10 10 10 10 10 9 9 9 9 9 9 8 8 8 8 7 7 7
Wind_Speed
12 11 13 14 13 12 12 13 12 11 10 7 7 6 6 5 5 7 10 12 12 12 10 6 6 6 5 5 4 2 2 1 1 1 1 1 1 3 4 6 6 8 10
11 13 13 14 15 15 15 13 13 12 12 10 7 4 4 4 5 5 8 11 12 12 11 8 6 6 5 5 5 4 2 2 3 3 1 2 3 2 3 4 6 8 9
14 15 15 16 15 16 16 15 13 12 11 10 6 4 3 2 3 4 5 8 12 12 11 10 8 7 6 6 7 6 5 3 2 2 3 3 3 2 2 3 5 5 6
12 12 14 15 16 16 13 12 12 12 11 11 10 9 7 7 7 5 6 6 9 10 11 11 10 8 6 6 7 6 5 5 4 2 2 2 3 2 2 2 3 4 6
13 14 15 15 14 13 12 12 11 11 10 11 11 10 8 6 4 4 6 6 6 9 10 11 9 8 7 7 7 6 6 5 5 4 3 2 2 2 3 3 3 3 4
12 11 10 9 9 9 10 11 11 11 11 11 11 11 10 8 6 6 7 6 5 6 8 9 9 8 7 7 7 7 7 6 5 5 4 4 3 4 4 5 4 4 4
10 10 11 10 10 11 11 11 12 11 11 11 11 11 10 10 10 9 8 7 6 5 8 8 7 7 8 8 7 6 7 7 6 7 6 5 5 4 4 4 4 4 3
9 10 11 12 12 12 11 11 11 11 11 11 11 9 9 8 7 8 7 7 7 7 7 8 8 8 9 8 7 6 7 6 7 8 7 6 6 5 5 4 4 3 3
9 9 9 10 10 10 10 11 11 10 10 10 9 8 8 8 8 7 7 6 6 6 7 8 8 8 8 8 7 6 7 6 7 7 7 7 6 5 6 5 5 5 5
7 8 8 9 8 8 8 7 8 9 9 9 9 8 8 8 7 6 7 7 7 6 6 7 7 7 7 7 6 6 6 6 6 6 6 6 5 5 5 5 5 6 6
7 7 7 6 6 7 7 8 7 7 7 7 7 8 8 7 7 7 7 7 6 6 7 7 7 7 6 6 6 7 6 7 6 6 6 7 6 5 5 4 5 5 5
6 6 6 5 6 7 7 7 7 7 6 6 6 7 6 6 6 6 6 6 6 5 6 6 6 6 6 6 7 7 6 6 7 6 6 6 5 5 4 4 5 5 5
5 5 5 6 6 6 6 6 6 6 5 5 5 5 5 5 5 5 5 5 5 4 4 5 5 5 5 5 6 5 5 5 6 6 6 6 5 5 4 4 5 5 5
5 5 5 5 5 4 4 5 5 4 4 5 5 5 5 5 5 4 4 4 4 4 4 4 4 4 4 4 4 4 4 4 3 3 4 4 4 5 5 4 5 4 4
5 6 6 6 5 5 4 4 4 4 4 4 4 3 4 4 4 4 4 3 3 3 3 3 2 2 2 3 3 3 3 2 2 1 1 1 1 2 3 3 3 4 4
6 6 7 7 6 5 5 5 5 4 5 5 4 4 5 5 4 4 3 3 3 3 3 3 3 2 1 2 3 3 2 2 1 0 1 1 1 1 1 2 1 2 3
5 6 6 6 5 5 5 6 6 6 6 6 5 5 5 5 4 4 4 4 4 4 4 4 4 4 4 6 6 6 4 3 2 2 2 1 2 2 2 4 5 5 4
6 6 6 7 6 6 7 7 7 7 6 6 5 5 5 5 4 5 4 4 4 4 4 4 5 5 6 8 8 8 6 6 5 4 3 3 3 3 4 5 6 6 5
7 7 7 7 7 8 8 8 8 7 6 6 5 5 5 5 5 5 4 4 5 6 5 5 6 6 6 8 8 8 6 7 7 7 7 6 5 6 6 6 6 6 5
8 8 9 9 9 8 8 9 8 7 6 5 5 5 6 6 6 5 5 6 7 7 7 7 7 7 6 8 8 7 6 7 6 7 8 11 9 9 7 6 6 6 4
9 9 9 8 7 7 9 9 8 7 5 6 7 7 7 7 7 6 6 7 8 8 8 8 8 7 7 8 9 8 6 6 6 6 6 7 11 12 11 9 7 7 6
9 9 9 8 6 7 9 9 8 6 7 8 8 8 7 7 7 7 7 7 8 8 8 8 8 7 7 8 10 11 9 8 8 7 6 7 12 13 13 10 10 10 9
9 8 9 9 7 6 7 8 6 6 9 9 9 8 9 8 7 8 8 7 7 7 6 6 6 6 6 8 12 12 12 11 9 8 10 11 12 12 11 13 13 10 7
9 8 9 8 7 6 7 6 6 7 10 10 8 8 8 9 8 7 6 6 6 6 6 6 6 6 6 5 6 6 8 10 10 9 10 13 14 11 11 10 9 8 7
7 7 8 8 7 7 7 6 7 8 10 9 8 8 8 8 9 9 8 7 6 5 6 6 6 6 6 5 7 7 7 6 7 8 8 8 8 9 8 8 8 7 7
8 8 8 8 7 7 7 6 6 7 9 8 8 7 7 7 8 9 10 16 13 15 14 11 9 8 9 11 14 15 14 13 11 10 8 8 7 7 7 7 7 7 7
Wind_Direction
194 179 180 181 179 180 183 187 186 181 175 178 184 187 196 195 197 204 207 204 203 201 196 196 188 184 187 190 179 163 164 172 141 105 2 322 257 238 234 233 232 233 231
180 180 180 182 185 187 189 190 191 186 185 189 186 181 172 187 196 200 203 206 205 201 201 194 192 189 184 184 184 171 163 175 163 151 124 326 321 280 240 230 230 235 233
192 186 184 187 187 192 193 195 194 191 189 181 166 149 134 126 178 198 203 207 205 204 201 198 197 193 190 196 196 183 178 186 190 178 160 174 235 284 289 250 238 233 230
194 190 187 188 192 195 189 189 189 188 187 179 178 177 185 194 200 196 200 201 204 206 204 199 199 195 195 199 201 194 189 178 196 200 205 195 172 190 287 295 260 246 239
193 192 193 192 191 188 185 186 184 187 184 184 189 190 197 199 182 178 193 201 204 207 207 202 199 198 201 206 203 192 194 194 196 195 188 192 197 202 207 263 284 276 253
190 189 189 180 179 178 182 183 185 190 186 187 191 195 197 189 179 189 200 205 204 206 209 206 201 203 204 207 208 203 200 204 204 205 197 187 189 201 202 230 253 263 269
180 177 174 176 181 180 183 185 188 192 189 190 195 198 200 194 195 197 201 201 202 208 210 206 202 205 208 206 203 204 207 204 207 212 216 212 217 198 191 209 237 253 271
179 179 178 179 183 184 182 186 191 195 192 195 199 200 200 200 203 201 196 201 207 213 208 206 206 208 208 210 204 209 216 211 214 221 219 220 223 210 203 201 203 244 268
175 173 172 177 180 182 186 188 192 196 196 197 196 197 200 202 205 201 197 204 210 212 208 208 209 210 209 209 203 214 218 216 222 226 226 227 227 217 216 212 205 212 248
165 165 171 179 179 179 177 180 191 196 197 193 195 200 199 202 203 198 201 205 208 208 206 209 210 208 206 205 204 212 214 216 225 224 227 231 233 227 220 216 215 216 223
165 166 173 174 163 161 165 175 189 188 188 192 193 194 194 195 193 199 205 206 205 202 207 208 207 205 206 204 206 216 214 220 228 225 223 230 228 229 227 219 216 220 217
153 159 155 150 158 164 168 177 187 188 188 186 188 195 188 182 189 200 203 201 202 200 203 202 205 208 208 208 211 219 220 221 226 225 221 229 229 228 228 224 224 226 220
136 135 140 153 160 164 170 173 180 183 177 174 178 179 177 175 184 193 190 190 193 192 191 192 199 205 207 208 212 213 217 222 225 224 224 229 223 230 229 228 231 235 232
137 137 144 145 141 146 149 153 160 161 158 159 162 167 170 169 172 172 169 174 177 176 176 184 193 198 198 203 206 203 205 214 227 229 228 230 225 233 228 229 234 232 227
142 145 145 138 130 131 133 133 127 121 129 133 139 146 141 137 139 146 151 154 152 152 152 156 160 164 174 191 187 187 193 202 221 229 223 221 198 218 221 228 228 220 219
150 145 139 135 136 139 133 121 108 104 109 114 116 114 117 123 130 133 131 130 130 127 120 121 125 120 125 104 131 147 142 144 152 129 53 39 50 73 91 94 95 172 201
143 137 133 130 127 129 123 113 103 100 102 103 100 103 111 120 130 132 124 126 127 120 109 101 97 86 75 80 91 106 111 100 88 79 67 44 31 49 79 75 75 67 74
133 125 117 113 105 102 102 101 100 102 102 100 98 100 107 111 112 114 115 119 118 111 102 99 97 89 74 76 78 85 85 76 62 52 52 60 44 54 85 92 82 71 63
127 119 112 112 107 106 108 107 103 102 99 96 93 93 103 108 106 105 105 103 102 96 91 88 88 84 68 67 77 85 86 76 61 52 50 58 58 54 80 96 94 80 64
112 112 108 106 107 109 113 109 106 101 96 91 87 86 91 100 100 96 93 92 97 96 92 81 73 74 67 60 70 87 93 86 74 61 54 54 58 54 66 86 91 86 69
106 105 102 100 105 111 112 109 104 98 94 90 88 84 84 89 92 91 93 97 98 95 89 82 70 65 64 63 65 74 90 95 87 75 62 54 60 61 62 68 75 82 83
105 103 100 94 89 99 108 107 103 100 96 92 88 83 79 82 88 92 89 92 99 98 91 85 73 60 56 63 68 72 80 90 91 82 71 64 64 63 60 64 63 66 71
108 105 105 97 84 84 103 110 107 104 99 93 88 86 82 77 78 85 89 88 90 95 95 93 86 72 63 63 65 70 75 80 87 85 79 71 65 63 61 56 57 59 65
111 111 109 105 95 86 91 102 105 103 102 98 93 90 88 81 73 71 74 83 87 96 100 100 97 87 72 66 71 76 80 78 83 83 74 67 62 62 57 53 53 55 58
107 109 112 111 107 102 98 98 103 108 105 101 98 95 92 92 82 71 60 67 58 83 103 103 103 103 89 66 82 93 89 89 92 89 74 65 61 59 55 53 50 49 50
111 109 108 110 110 106 101 99 105 113 114 109 105 104 104 99 97 94 77 59 66 66 69 78 93 83 91 91 83 80 80 81 88 84 76 69 66 64 60 57 52 48 46
Height
1510 1515 1519 1523 1527 1531 1534 1537 1540 1543 1546 1549 1551 1554 1556 1560 1562 1565 1567 1569 1571 1573 1575 1576 1578 1579 1581 1582 1584 1585 1586 1587 1588 1588 1589 1589 1589 1589 1590 1590 1591 1592 1592
1508 1511 1516 1520 1523 1527 1531 1534 1537 1541 1544 1547 1550 1553 1555 1558 1560 1563 1565 1567 1569 1571 1573 1575 1576 1578 1579 1580 1582 1583 1584 1585 1586 1587 1587 1587 1588 1587 1588 1588 1589 1589 1590
1502 1507 1511 1515 1519 1523 1527 1531 1535 1538 1541 1545 1548 1551 1553 1556 1558 1560 1562 1564 1567 1569 1570 1572 1574 1575 1577 1578 1579 1581 1582 1583 1584 1585 1586 1586 1585 1586 1586 1586 1586 1587 1588
1500 1504 1508 1512 1515 1519 1524 1528 1532 1536 1539 1542 1545 1547 1549 1551 1554 1557 1559 1562 1564 1566 1567 1569 1570 1572 1574 1576 1577 1578 1579 1581 1581 1582 1583 1584 1584 1585 1584 1584 1584 1585 1585
1496 1500 1504 1507 1512 1517 1521 1525 1529 1533 1536 1539 1542 1545 1547 1549 1552 1554 1557 1559 1560 1562 1564 1566 1568 1569 1571 1572 1574 1575 1576 1577 1578 1579 1580 1581 1582 1582 1582 1581 1582 1582 1582
1492 1496 1501 1506 1510 1515 1519 1522 1526 1529 1533 1536 1539 1541 1544 1546 1549 1551 1553 1555 1557 1559 1560 1562 1564 1566 1568 1569 1571 1572 1573 1574 1575 1576 1577 1578 1578 1579 1579 1579 1578 1579 1579
1489 1493 1497 1502 1506 1511 1515 1518 1522 1525 1529 1532 1534 1537 1540 1542 1544 1547 1549 1551 1553 1554 1556 1558 1560 1562 1564 1566 1567 1568 1569 1570 1571 1572 1573 1574 1575 1575 1576 1576 1576 1575 1575
1486 1490 1493 1498 1502 1507 1510 1514 1518 1521 1525 1527 1530 1533 1536 1538 1540 1543 1545 1547 1548 1550 1552 1554 1556 1558 1560 1561 1563 1564 1565 1566 1567 1568 1569 1569 1570 1571 1571 1572 1573 1572 1571
1483 1487 1491 1496 1500 1503 1506 1510 1514 1518 1521 1523 1526 1529 1532 1534 1536 1538 1540 1542 1544 1546 1548 1549 1552 1553 1555 1557 1558 1559 1561 1562 1563 1563 1564 1565 1565 1566 1567 1568 1568 1569 1568
1482 1485 1489 1493 1497 1501 1504 1508 1512 1514 1517 1520 1523 1525 1528 1530 1532 1534 1535 1537 1539 1541 1543 1545 1547 1549 1550 1552 1553 1555 1556 1557 1557 1558 1559 1560 1560 1561 1562 1563 1563 1564 1564
1481 1484 1488 1492 1495 1499 1502 1506 1509 1512 1514 1516 1519 1521 1524 1526 1527 1529 1531 1533 1535 1537 1539 1540 1542 1544 1546 1547 1549 1550 1551 1552 1552 1553 1553 1554 1555 1556 1557 1557 1558 1559 1559
1480 1484 1486 1490 1494 1497 1500 1504 1507 1509 1511 1513 1516 1518 1520 1522 1523 1525 1527 1529 1531 1533 1535 1537 1538 1539 1541 1543 1544 1545 1546 1547 1547 1548 1548 1549 1550 1551 1552 1553 1553 1554 1554
1480 1483 1486 1489 1492 1495 1498 1502 1505 1507 1509 1511 1513 1514 1516 1518 1519 1521 1524 1526 1528 1530 1531 1533 1534 1535 1537 1538 1540 1541 1542 1542 1543 1543 1544 1544 1545 1546 1546 1547 1548 1549 1549
1480 1483 1486 1489 1492 1494 1497 1500 1503 1505 1507 1509 1511 1512 1514 1515 1517 1519 1521 1523 1525 1527 1528 1530 1531 1532 1533 1534 1536 1537 1538 1539 1539 1539 1540 1540 1541 1541 1541 1542 1543 1544 1544
1480 1482 1485 1488 1491 1494 1497 1499 1502 1504 1506 1507 1509 1510 1512 1514 1516 1517 1520 1522 1523 1525 1526 1527 1528 1529 1530 1531 1533 1534 1535 1535 1536 1536 1537 1537 1537 1537 1538 1538 1538 1539 1539
1480 1483 1485 1488 1491 1494 1497 1499 1501 1503 1505 1506 1508 1509 1511 1512 1514 1516 1519 1521 1522 1523 1524 1525 1526 1527 1528 1529 1531 1532 1532 1533 1533 1534 1534 1534 1534 1534 1534 1535 1535 1535 1535
1480 1482 1485 1488 1491 1494 1497 1499 1502 1504 1505 1506 1508 1509 1510 1512 1514 1515 1517 1519 1521 1522 1523 1524 1525 1525 1527 1528 1529 1530 1530 1531 1531 1532 1532 1532 1532 1532 1532 1532 1531 1531 1532
1481 1483 1486 1488 1492 1495 1498 1500 1503 1504 1505 1506 1507 1509 1510 1512 1514 1515 1517 1519 1520 1521 1522 1523 1524 1525 1526 1527 1528 1528 1529 1529 1530 1530 1530 1530 1530 1530 1530 1530 1529 1529 1529
1481 1484 1487 1490 1492 1496 1498 1501 1503 1504 1506 1507 1508 1509 1511 1512 1514 1515 1517 1518 1519 1521 1522 1523 1523 1524 1526 1527 1527 1528 1528 1528 1529 1529 1530 1530 1529 1529 1529 1528 1528 1527 1527
1482 1485 1487 1490 1493 1496 1499 1501 1503 1505 1506 1508 1509 1510 1512 1513 1514 1516 1517 1518 1520 1521 1522 1523 1524 1525 1526 1527 1527 1528 1528 1528 1528 1529 1529 1529 1529 1528 1528 1528 1527 1527 1527
1483 1486 1489 1492 1495 1497 1499 1501 1503 1506 1507 1509 1510 1511 1512 1514 1515 1516 1517 1518 1520 1521 1523 1523 1525 1526 1527 1528 1528 1528 1528 1529 1528 1529 1529 1529 1530 1530 1529 1529 1528 1528 1528
1484 1488 1490 1493 1496 1498 1500 1502 1503 1506 1507 1509 1511 1512 1513 1515 1516 1517 1518 1520 1521 1522 1523 1525 1526 1527 1528 1529 1529 1529 1529 1530 1530 1530 1531 1531 1532 1531 1531 1531 1530 1530 1529
1485 1489 1492 1494 1497 1499 1501 1503 1505 1506 1508 1510 1512 1513 1515 1516 1517 1518 1519 1521 1522 1523 1524 1525 1526 1527 1529 1529 1530 1531 1531 1531 1531 1532 1532 1533 1533 1533 1533 1532 1532 1532 1531
1487 1490 1492 1495 1498 1500 1502 1504 1506 1507 1509 1511 1512 1514 1516 1517 1518 1520 1521 1522 1523 1524 1525 1527 1527 1529 1530 1531 1532 1532 1533 1533 1533 1534 1535 1535 1535 1535 1535 1534 1534 1533 1533
1488 1491 1494 1496 1499 1501 1503 1505 1507 1508 1510 1511 1513 1515 1517 1519 1520 1521 1523 1524 1525 1527 1528 1529 1530 1530 1531 1533 1534 1534 1535 1535 1536 1536 1537 1537 1537 1537 1537 1537 1536 1536 1536
1489 1493 1495 1498 1500 1502 1504 1505 1508 1510 1511 1512 1514 1516 1518 1520 1521 1523 1524 1526 1528 1530 1531 1532 1532 1533 1534 1535 1536 1537 1537 1538 1539 1539 1539 1539 1539 1539 1539 1539 1539 1538 1538